STARLINK-6187, 56546

Orbit data source: Space-Track

STARLINK-6187, 56546 is a payload satellite owned by SpaceX/Seattle (US) in LEO that was launched on Sun, 14 May 2023 UTC via an FALCON 9 launch vehicle from the Air Force Eastern Test Range (AFETR). Payload-class satellites include a variety of spacecraft equipped with specific instruments for various scientific and technological missions. These include communications satellites like Starlink; space stations such as the ISS; scientific satellites like the Hubble; Earth observation satellites from companies like Planet Labs, Umbra, and HawkEye 360; GPS; miniature CubeSats for education and research; and military/defense satellites.

Loading next visibility...
Identifier
56546, 2023-065AV
Orbit
LEO
Country
Flag of USUS
Related business
Manufacturer
SpaceX/Seattle
Mission
Operational Commercial Communications
Bus & Motor
STARLINK, Unknown motor
Mass
305 kg wet, ~290 kg dry
Launch date (UTC)
2023-05-14 (3 years ago)
Launch vehicle
FALCON 9
Launch site
Air Force Eastern Test Range (AFETR)
Object type
Payload
Rocket body
Debris
Shape & HBR
Box + 1 Pan, 10.1 m
Radar Cross Section
11.087 m², Large (>1 m²)

Expand to show TLE details & history
Last TLE update: 3 days ago

TLE from 3 days ago
0 STARLINK-6187
1 56546U 23065AV  26170.58721069  .00012466  00000-0  46165-3 0  9990
2 56546  43.0037   8.3302 0001613 273.1550  86.9118 15.27588713172050
Epoch: 2026-06-19T14:05Z
TLE epoch observation values (Epoch: 2026-06-19T14:05:35.003Z)
Latitude
0.00003°
Longitude
-110.87966°
Altitude
482.739 km
Speed
7.626 km/s
True Right ascension
00h 33m 19s
True Declination
0° 00' 00"
Sunlit
Object was in daylight at epoch
Visualization orbit readout
Latitude
Unknown
Longitude
Unknown
Altitude
Unknown
Speed
Unknown
Apparent Right ascension
Unknown
Apparent Declination
Unknown
Sunlit
N/A
Visualization observer readout
Local Sidereal Time
21:24:19
Azimuth
Unknown
Elevation
Unknown
Doppler factor
Unknown
Orbital elements
Apogee altitude
486.075 km
Perigee altitude
483.861 km
Semi-major axis
6,863.105 km
Eccentricity
0.00016
Inclination
43.0037°
RAAN
8.3302°
Arg. of periapsis
273.155°
True anomaly
86.93026°
Mean anomaly
86.9118°
Eccentric anomaly
86.92103°
Mean motion
3.81735 °/min
Orbital period
94.31 mins
BSTAR
0.00046165
Loading maneuver chart data...
Computing Atmospheric mass density...
Loading historical data...
Loading historical data...
Loading historical data...
Loading historical data...
Loading historical data...
Loading historical data...
Loading historical data...

Documentation

Showing up to 5 results
|